Fryeburg, ME

3:49 PM EDT on March 27, 2017 (GMT -0400)
Eastern Slopes Regional

Weather History for KIZG - June, 2013

Change the Weather History Date:

Sunday, June 9, 2013

  Actual Average Record
Temperature  
Mean Temperature 63 °F -  
Max Temperature 77 °F 72 °F 93 °F (2004)
Min Temperature 51 °F 46 °F 39 °F (1997)
Degree Days  
Heating Degree Days 2    
Growing Degree Days 13 (Base 50)    
Moisture  
Dew Point 52 °F    
Average Humidity 65    
Maximum Humidity 96    
Minimum Humidity 40    
Precipitation  
Precipitation 0.14 in - - ()
Sea Level Pressure  
Sea Level Pressure 30.07 in    
Wind  
Wind Speed 2 mph (West)    
Max Wind Speed 9 mph    
Max Gust Speed 21 mph    
Visibility 10 miles    
Events      
Averages and records for this station are not official NWS values.
T = Trace of Precipitation, MM = Missing Value Source: NWS Daily Summary

Daily Weather History Graph

Daily Weather History Graph

Search for Another Location

Airport or City:

Trip Planner

Search our weather history database for the weather conditions in past years. The results will help you decide how hot, cold, wet, or windy it might be!

Date:

Astronomy

Jun. 09, 2013 Rise Set
Actual Time 5:00 AM EDT 8:25 PM EDT
Civil Twilight 4:24 AM EDT 9:01 PM EDT
Nautical Twilight 3:37 AM EDT 9:48 PM EDT
Astronomical Twilight 2:38 AM EDT 10:48 PM EDT
Moon 5:57 AM EDT (6/9) 9:07 PM EDT (6/9)
Length of Visible Light 16h 36m
Length of Day
15h 24m
New Moon, 1% of the Moon is Illuminated
Jun 9
New Moon
Jun 16
First Quarter
Jun 23
Full
Jun 30
Last Quarter
Jul 8
New

Hourly Weather History & Observations

Time (EDT) Temp. Dew Point Humidity Pressure Visibility Wind Dir Wind Speed Gust Speed Precip Events Conditions
12:54 AM 60.1 °F 53.1 °F 78% 30.01 in 10.0 mi Calm Calm - 0.01 in   Overcast
1:54 AM 60.1 °F 53.1 °F 78% 30.01 in 10.0 mi Calm Calm - 0.01 in   Overcast
2:54 AM 55.0 °F 53.1 °F 93% 30.01 in 10.0 mi Calm Calm - N/A   Clear
3:54 AM 53.1 °F 51.1 °F 93% 30.01 in 10.0 mi Calm Calm - 0.01 in   Clear
4:54 AM 51.1 °F 50.0 °F 96% 30.03 in 10.0 mi Calm Calm - N/A   Clear
5:54 AM 51.1 °F 50.0 °F 96% 30.05 in 10.0 mi Calm Calm - 0.01 in   Mostly Cloudy
6:54 AM 57.0 °F 53.1 °F 87% 30.06 in 10.0 mi Calm Calm - N/A   Clear
7:54 AM 62.1 °F 55.0 °F 78% 30.07 in 10.0 mi Calm Calm - 0.01 in   Mostly Cloudy
8:54 AM 66.0 °F 55.9 °F 70% 30.08 in 10.0 mi Calm Calm - N/A   Mostly Cloudy
9:54 AM 69.1 °F 53.1 °F 57% 30.07 in 10.0 mi WSW 6.9 mph - 0.01 in   Mostly Cloudy
10:54 AM 72.0 °F 54.0 °F 53% 30.07 in 10.0 mi SSW 5.8 mph - N/A   Mostly Cloudy
11:54 AM 73.0 °F 53.1 °F 49% 30.06 in 10.0 mi Variable 5.8 mph - 0.01 in   Mostly Cloudy
12:54 PM 73.9 °F 53.1 °F 48% 30.06 in 10.0 mi West 8.1 mph - 0.01 in   Overcast
1:54 PM 73.9 °F 52.0 °F 46% 30.05 in 10.0 mi Variable 5.8 mph - 0.01 in   Scattered Clouds
2:54 PM 75.9 °F 52.0 °F 43% 30.06 in 10.0 mi WNW 9.2 mph - 0.01 in   Mostly Cloudy
3:54 PM 73.9 °F 50.0 °F 43% 30.06 in 10.0 mi WNW 6.9 mph 20.7 mph N/A   Mostly Cloudy
4:54 PM 75.9 °F 50.0 °F 40% 30.06 in 10.0 mi West 8.1 mph - 0.01 in   Partly Cloudy
5:54 PM 73.0 °F 48.9 °F 42% 30.07 in 10.0 mi WNW 4.6 mph - N/A   Overcast
6:54 PM 73.9 °F 50.0 °F 43% 30.08 in 10.0 mi WNW 5.8 mph - 0.01 in   Clear
7:54 PM 70.0 °F 50.0 °F 49% 30.09 in 10.0 mi Variable 3.5 mph - 0.01 in   Clear
8:54 PM 64.9 °F 51.1 °F 61% 30.11 in 10.0 mi West 3.5 mph - N/A   Clear
9:54 PM 63.0 °F 51.1 °F 65% 30.14 in 10.0 mi SSW 3.5 mph - N/A   Clear
10:54 PM 61.0 °F 51.1 °F 70% 30.15 in 10.0 mi West 5.8 mph - 0.01 in   Clear
11:54 PM 60.1 °F 51.1 °F 72% 30.17 in 10.0 mi Calm Calm - N/A   Clear